{"data":{"norad_id":51444,"intl_designator":"2022-008A","name":"CSG-2","alt_names":[],"object_type":"PAYLOAD","status":"ACTIVE","operator":null,"country":"IT","launch_date":"2022-01-31","launch_site_code":"AFETR","launch_vehicle":null,"mission":null,"orbit_class":"UNKNOWN","rcs_meters":null,"size_class":null,"mass_kg":null,"dimensions":null,"purposes":["earth_obs"],"wikipedia_slug":null,"has_3d_model":false,"image_url":null,"decayed_at":null,"tle_current":{"epoch":"2026-09-20T03:21:32.752224Z","epoch_age_seconds":49413,"freshness":"FRESH","line1":"1 51444U 22008A   26263.13996241  .00000303  00000+0  44654-4 0  9996","line2":"2 51444  97.8917  85.3855 0001400  81.9636 278.1735 14.82154852250654","mean_motion":14.82154852,"eccentricity":0.00014,"inclination_deg":97.8917,"raan_deg":85.3855,"arg_perigee_deg":81.9636,"mean_anomaly_deg":278.1735,"bstar":4.4654e-5,"rev_number":25065,"period_min":97.155840232003,"perigee_km":621.55046284152,"apogee_km":623.51064975729,"semimajor_km":7000.6675562994,"source":"CELESTRAK","updated_at":"2026-09-20T09:00:33.977736Z"}}}